Location: ??
(35.4032°N, 139.3073°E)
Time: 12:05:11
(UTC+00:00)

Sich 1 - Pass Details

Date: 13 April 2024
Orbit: 584 x 612 km, 82.5° (Epoch: 21 May)

Event Time Altitude Azimuth Distance (km) Brightness Sun altitude
Rises 17:53:42 0° 352° (N) 2,816 6.8 -26.5°
Reaches altitude 10° 17:55:53 10° 352° (N) 1,914 5.9 -26.2°
Enters shadow 17:58:40 41° 348° (NNW) 865 3.9 -25.7°
